Date,TemperatureHighF,TemperatureAvgF,TemperatureLowF,DewpointHighF,DewpointAvgF,DewpointLowF,HumidityHigh,HumidityAvg,HumidityLow,PressureMaxIn,PressureMinIn,WindSpeedMaxMPH,WindSpeedAvgMPH,GustSpeedMaxMPH,PrecipitationSumIn
2013-12-1,42.7,33.9,22.9,33.9,29.8,21.2,95,85,67,30.19,29.98,9,1,9,0.00
2013-12-2,40.7,36.2,30.8,36.8,33.6,28.4,95,90,83,29.99,29.66,18,4,18,0.03
2013-12-3,42.9,39.3,36.2,42.4,38.6,34.9,98,97,95,29.69,29.59,14,3,16,0.00
2013-12-4,49.4,39.0,23.7,49.1,38.3,20.9,99,97,89,29.86,29.46,27,5,27,0.04
2013-12-5,23.7,16.8,11.4,20.9,11.7,6.2,90,80,72,30.43,29.85,25,8,26,0.00
2013-12-6,15.7,9.7,5.1,7.3,4.0,0.3,83,77,66,30.72,30.41,16,6,17,0.00
2013-12-7,15.0,6.9,-0.6,5.8,0.7,-4.4,84,76,57,30.85,30.67,12,2,14,0.00
2013-12-8,20.8,17.2,11.8,18.6,12.9,4.8,93,83,68,30.67,30.07,19,4,19,0.00
2013-12-9,17.7,4.6,-7.2,16.0,0.9,-10.8,93,84,72,30.34,30.07,18,3,18,0.00
2013-12-10,16.9,12.7,-3.8,14.0,6.9,-7.3,91,78,69,30.35,30.05,25,4,26,0.00
2013-12-11,17.0,4.8,-5.1,15.0,0.2,-9.1,92,81,66,30.70,30.32,20,3,20,0.00
2013-12-12,21.1,10.9,-3.6,14.8,5.9,-7.1,92,80,71,30.64,30.26,15,2,15,0.00
2013-12-13,27.4,19.2,5.7,22.1,15.7,3.2,92,86,79,30.26,30.09,20,5,20,0.00
2013-12-14,24.5,20.8,14.0,20.7,17.5,10.2,91,87,83,30.16,30.11,19,5,20,0.00
2013-12-15,14.1,11.0,6.9,10.7,5.9,1.5,89,80,71,30.21,30.13,16,3,16,0.00
2013-12-16,21.7,16.4,11.7,20.0,13.5,8.4,93,88,84,30.18,30.07,9,3,12,0.00
2013-12-17,35.0,25.3,15.5,27.9,20.2,13.4,93,81,68,30.23,30.08,25,6,25,0.04
2013-12-18,42.3,27.5,13.1,30.6,21.4,11.0,94,79,57,30.22,29.81,16,2,19,0.00
2013-12-19,35.4,29.3,21.8,31.2,27.0,20.3,96,91,81,29.94,29.82,18,4,18,0.00
2013-12-20,31.4,25.7,23.7,30.1,24.3,22.0,96,94,92,29.92,29.82,17,3,17,0.00
2013-12-21,27.8,25.9,23.7,26.8,24.5,22.3,96,94,91,29.93,29.75,11,2,12,0.02
2013-12-22,27.7,21.5,7.0,26.7,19.2,3.1,96,91,84,30.31,29.77,11,2,11,0.05
2013-12-23,6.9,-0.8,-5.2,3.0,-5.3,-9.8,85,81,75,30.63,30.31,16,2,16,0.00
2013-12-24,14.4,-1.0,-15.9,11.8,-5.5,-19.9,89,81,71,30.66,30.34,14,3,14,0.00
2013-12-25,25.6,21.1,14.5,23.9,18.6,11.8,94,90,80,30.34,30.21,17,3,17,0.00
2013-12-26,34.4,23.4,14.6,28.5,20.0,11.9,94,87,76,30.28,30.17,9,1,9,0.07
2013-12-27,41.1,29.0,12.8,31.7,23.6,10.7,95,81,68,30.31,30.12,18,2,18,0.06
2013-12-28,46.4,38.4,27.4,34.4,31.3,25.1,92,76,61,30.12,29.82,18,3,18,0.00
2013-12-29,35.5,13.6,-4.7,31.1,9.3,-9.3,92,83,74,30.39,29.84,30,9,30,0.00
2013-12-30,6.3,-0.3,-8.5,3.4,-4.3,-12.0,89,83,67,30.42,30.29,10,1,10,0.00
2013-12-31,9.5,2.7,-12.0,6.0,-0.7,-16.2,89,85,82,30.45,30.32,14,2,14,0.00